Regional Weather Roundup
Issued by NWS

Home | Current Version | Previous Version | Graphics & Text | Print | Product List | Glossary On
Versions: 1 2 3 4 5 6 7 8 9 10 11 12 13 14 15 16 17 18 19 20 21 22 23 24 25 26 27 28 29 30 31 32 33 34 35 36 37 38 39 40 41 42 43 44 45 46 47 48 49 50
000
ASUS45 KBOU 040307
RWRCO

WEATHER ROUNDUP FOR COLORADO
NATIONAL WEATHER SERVICE DENVER/BOULDER CO
800 PM MST TUE MAR 03 2015

NOTE: "FAIR" INDICATES FEW OR NO CLOUDS BELOW 12000 FEET WITH NO
SIGNIFICANT WEATHER AND/OR OBSTRUCTIONS TO VISIBILITY.

COZ001>005-013-030-031-040400-
...NORTHWEST COLORADO...

CITY           SKY/WX    TMP DP  RH WIND       PRES   REMARKS
CRAIG            N/A     22  15  75 CALM      29.82R
HAYDEN         CLOUDY    19  16  86 W8        29.79R WCI   9
MEEKER         LGT SNOW  26  23  88 CALM      29.81R VSB 1
MOUNT WERNER   NOT AVBL
STEAMBOAT SPGS CLOUDY    21  16  81 SW3       29.78R
WALDEN         CLOUDY    12   7  79 CALM      29.73R
$$

COZ006>008-011-040400-
...WEST CENTRAL VALLEYS...

CITY           SKY/WX    TMP DP  RH WIND       PRES   REMARKS
GRAND JUNCTION LGT SNOW  30  30 100 N6        29.83R FOG     WCI  24
MONTROSE       CLOUDY    33  29  85 N10       29.82R WCI  25
EAGLE          PTCLDY    28  27  93 CALM      29.76S
RIFLE          LGT SNOW  31  28  89 W12       29.80R FOG     WCI  22
DELTA          FLURRIES  34  32  92 S8        29.82R WCI  27
NUCLA          NOT AVBL
$$

COZ017>023-064>068-040400-
...SOUTHWEST COLORADO...

CITY           SKY/WX    TMP DP  RH WIND       PRES   REMARKS
DURANGO        MOCLDY    29  26  89 SW5       29.84R WCI  24
CORTEZ         PTCLDY    32  29  88 NW3       29.85R
PAGOSA SPRINGS FOG       19  19  98 CALM      29.84R VSB 3/4
TELLURIDE      PTCLDY    22  17  79 CALM      29.81S
WOLF CREEK PAS CLOUDY    10  10 100 MISG      29.79R
$$

COZ009-010-012-014-032>034-037-058>063-040400-
...CENTRAL COLORADO...

CITY           SKY/WX    TMP DP  RH WIND       PRES   REMARKS
ASPEN          CLOUDY    25  22  88 N9        29.73R WCI  15
BUENA VISTA    MOCLDY    26  15  63 W9        29.72R WCI  16
COPPER MTN     NOT AVBL
BERTHOUD PASS  SNOW       7   1  78 W32G46    29.63F VSB 1/4 WCI -17
COTTONWOOD PAS CLOUDY    27  10  50 NW8G22    29.70R WCI  18
GUNNISON       PTCLDY    27  12  54 W9        29.79S WCI  17
KREMMLING      MOCLDY    27  12  54 NW9G20    29.76R WCI  17
LEADVILLE      CLOUDY    15  11  83 N3        29.68R
SALIDA         MOCLDY    26  22  85 SE12G18   29.82S WCI  15
SUNLIGHT       SNOW      18  16  93 CALM        N/A  VSB 1/2
WILKERSON PASS CLOUDY    14  10  85 S8        29.71R WCI   3
$$

COZ069>075-040400-
...SAN LUIS VALLEY/SANGRE DE CRISTO MOUNTAINS...

CITY           SKY/WX    TMP DP  RH WIND       PRES   REMARKS
ALAMOSA        CLEAR     27  22  81 S14       29.77S WCI  16
LA VETA PASS   CLOUDY    21  16  79 S15G26    29.75S WCI   8
SAGUACHE       MOCLDY    28  23  80 N3        29.76R
$$

COZ035-036-038>040-040400-
...NORTHERN COLORADO FRONT RANGE...

CITY           SKY/WX    TMP DP  RH WIND       PRES   REMARKS
DENVER INTL AP SNOW      19  16  88 NE8       29.88R VSB 1/2 WCI   9
DMNS CITY PARK   N/A     20  16  84 E3        29.89R
AURORA         LGT SNOW  18  17  95 NE6       29.86R VSB 3/4 WCI  10
FRONT RANGE AP NOT AVBL
ERIE MUNI ARPT CLOUDY    22  18  84 CALM      29.90R
BOULDER MUN AP LGT SNOW  21  19  93 CALM      29.89R
CENTENNIAL     CLOUDY    19  16  88 NE5       29.84R WCI  12
BROOMFIELD     LGT SNOW  21  18  86 N7          N/A  WCI  13
FORT COLLINS   MOCLDY    18  12  79 NE8       29.92R WCI   7
LONGMONT       LGT SNOW  22  19  86 CALM      29.93R
$$

COZ041-046-047-076>085-087-088-040400-
...PIKES PEAK/PALMER DIVIDE AND SOUTHERN FOOTHILLS...

CITY           SKY/WX    TMP DP  RH WIND       PRES   REMARKS
COLO. SPRINGS  LGT SNOW  21  20  96 SE15      29.82R VSB 1   WCI   8
A. F. ACADEMY  CLOUDY    20  18  91 S10       29.79R WCI   8
ELLICOTT       NOT AVBL
FALCON         CLOUDY    19  18  98 SE10      29.80R WCI   7
FORT CARSON    LGT SNOW  22  21  96 S16       29.81S FOG     WCI   8
LIMON          NOT AVBL
MONUMENT HILL  CLOUDY    18  14  86 SE9       29.77S WCI   6
TRINIDAD       FOG       28  27  96 E5        29.82S VSB 1/4 WCI  23
$$

COZ042>045-048>051-090-091-040400-
...NORTHEAST COLORADO...

CITY           SKY/WX    TMP DP  RH WIND       PRES   REMARKS
GREELEY ARPT   CLOUDY    18   9  68 NE14      29.92R VSB 1   WCI   4
AKRON          CLOUDY    19  15  84 E9        29.92R WCI   8
BURLINGTON     CLOUDY    26  14  60 E10       29.93S WCI  16
WRAY           CLOUDY    24  11  55 NE13      29.98R WCI  13
STERLING       CLOUDY    23  12  63 NE9       29.96R WCI  13
HOLYOKE        NOT AVBL
FORT MORGAN    CLOUDY    21  13  70 N13       29.94R WCI   9
$$

COZ086-089-092>099-040400-
...SOUTHEAST COLORADO...

CITY           SKY/WX    TMP DP  RH WIND       PRES   REMARKS
PUEBLO         CLOUDY    26  25  96 E12       29.87F FOG     WCI  16
LA JUNTA       CLOUDY    29  22  75 E10       29.91R WCI  20
LAMAR          CLOUDY    29  20  69 E8        29.92R WCI  21
SPRINGFIELD      N/A     25  24  96 NE9       29.90R WCI  15
$$


USA.gov is the U.S. government's official web portal to all federal, state and local government web resources and services.